Temperature
14 14 14 14 14 14 14 15 15 15 15 15 15 15 15 15 15 15 15 15 15 15 15 15 15 15 15 15 15 15 14 14 14 14 14 14 14 14 14 14 14 14 14
14 14 14 14 14 14 14 14 15 15 15 15 15 15 15 15 15 15 15 15 15 15 15 15 14 14 14 14 14 14 14 14 14 14 14 14 14 14 14 14 14 14 14
14 14 14 14 14 14 14 14 14 14 14 15 15 15 15 15 15 15 15 15 15 14 14 14 14 14 14 14 14 14 14 14 14 14 14 14 14 14 14 14 14 14 14
14 14 14 14 14 14 14 14 14 14 14 14 14 14 14 14 14 14 14 14 14 14 14 14 14 14 14 14 14 14 14 14 14 14 14 14 14 14 13 13 13 13 14
13 14 14 14 13 14 14 14 14 14 14 14 14 14 14 14 14 14 14 14 14 14 14 14 14 14 14 14 14 14 14 14 14 14 14 14 14 13 13 13 13 13 13
13 13 13 13 13 13 13 14 14 14 14 14 14 14 14 14 14 14 14 14 14 14 14 14 14 14 14 14 14 14 14 14 13 13 13 13 13 13 13 13 13 13 13
13 13 13 13 13 13 13 13 13 14 14 13 13 13 14 14 13 14 14 14 13 14 14 14 13 14 13 13 13 13 13 13 13 13 13 13 13 13 13 13 13 13 13
13 13 13 13 13 13 13 13 13 13 13 13 13 13 13 13 13 13 13 14 13 13 13 13 13 13 13 13 13 13 13 13 13 13 13 13 13 13 13 13 13 12 12
12 12 12 13 13 13 13 13 13 13 13 13 13 13 13 13 13 13 13 13 13 13 13 13 13 13 13 13 13 13 13 13 13 13 13 13 13 12 12 12 12 12 12
12 12 12 12 12 12 13 13 13 13 12 12 13 13 13 13 13 13 13 13 13 13 13 13 13 13 13 13 13 13 12 12 13 13 12 12 12 12 12 12 12 12 12
11 11 12 12 12 12 12 12 12 12 12 12 12 12 12 12 13 13 13 13 13 13 13 12 12 12 12 12 12 12 12 12 12 12 12 12 12 12 12 12 12 12 12
11 11 11 11 11 12 12 12 12 12 12 12 12 12 12 12 12 12 12 12 12 12 12 12 12 12 12 12 12 12 12 12 12 12 12 12 12 12 12 12 12 12 12
11 11 11 11 11 11 11 11 11 11 11 11 11 11 11 11 11 11 12 12 12 12 12 12 12 12 12 12 12 12 12 12 11 12 12 11 11 11 11 11 11 11 11
10 10 10 10 11 11 11 11 11 11 11 11 11 11 11 11 11 11 11 11 11 11 11 11 11 11 11 11 11 11 11 11 11 11 11 11 11 11 11 11 11 11 11
10 10 10 10 10 10 10 10 10 10 10 10 10 10 10 10 10 10 10 10 11 11 11 11 11 11 11 11 11 11 11 11 11 11 11 11 11 11 11 11 11 11 11
9 9 10 10 10 10 10 10 10 10 10 10 10 10 10 10 10 10 10 10 10 10 10 10 10 10 10 10 10 11 11 11 10 10 10 11 11 11 10 10 10 10 10
9 9 9 9 9 9 9 9 9 9 9 9 9 9 9 9 9 9 9 10 10 10 10 10 10 10 10 10 10 10 10 10 10 10 10 10 10 10 10 10 10 10 10
9 9 9 9 9 9 9 9 9 9 9 8 8 9 9 9 9 9 9 9 9 9 9 9 9 9 9 9 9 9 9 9 10 10 10 10 10 10 10 10 10 10 10
8 8 8 8 8 8 8 8 8 8 8 8 8 8 8 8 8 8 8 8 8 8 8 8 9 9 9 9 9 9 9 9 9 9 9 9 9 9 9 10 10 10 10
8 8 8 7 7 8 8 7 8 8 8 7 7 7 7 8 8 7 8 8 8 8 8 8 8 8 8 8 8 8 8 8 9 9 9 9 9 9 9 9 9 9 9
7 7 7 7 7 7 7 7 7 7 7 7 7 7 7 7 7 7 7 7 7 7 7 7 7 7 7 7 7 7 8 8 8 8 8 8 8 9 9 9 9 9 9
6 7 7 7 7 7 6 6 6 6 6 6 6 6 6 7 6 6 6 7 7 7 7 7 7 7 7 6 6 6 6 7 8 8 8 8 8 8 8 8 8 8 9
6 6 6 6 6 6 6 6 5 6 6 6 6 6 6 6 6 6 6 6 6 6 6 6 6 6 6 6 6 5 5 5 6 7 7 7 7 7 8 8 8 8 8
5 5 5 5 6 5 5 5 5 5 5 5 5 6 6 6 6 6 6 6 6 6 5 5 5 6 6 6 5 5 5 5 5 5 6 6 7 7 7 7 7 7 7
5 5 5 5 5 5 5 5 5 5 5 5 5 5 5 5 5 5 5 5 5 5 5 5 5 5 5 5 5 5 5 5 5 4 4 5 6 6 6 6 7 7 7
4 4 4 4 4 4 4 4 4 4 4 4 4 4 4 5 5 5 5 5 5 5 5 5 5 5 5 5 5 5 5 4 4 4 4 4 4 5 5 6 6 6 6
Wind_Speed
1 2 1 3 4 5 6 6 7 7 7 7 7 8 8 8 8 8 7 7 7 7 7 6 6 7 8 8 9 8 9 9 8 8 8 9 9 9 9 9 8 8 8
1 1 2 3 4 5 5 6 6 6 7 7 7 7 7 7 7 7 6 6 6 7 6 6 6 7 7 8 8 8 8 7 7 8 8 8 7 8 8 8 7 7 7
2 1 2 3 5 5 5 6 6 6 6 6 6 6 6 6 6 6 6 5 6 6 6 5 6 6 7 7 7 7 7 7 7 7 7 6 6 6 6 7 7 6 6
2 3 3 4 5 5 5 5 5 5 5 5 5 5 5 5 5 5 5 5 5 5 5 5 5 6 6 6 6 6 6 6 6 7 6 5 4 5 5 5 5 5 5
3 3 3 5 5 5 5 5 5 4 4 4 4 5 5 5 4 4 4 5 5 4 4 4 5 5 5 5 5 5 5 6 5 6 6 5 4 4 4 4 4 4 4
2 2 3 5 5 5 5 4 4 4 4 4 4 4 4 4 4 4 4 4 4 4 4 4 4 4 4 4 5 5 5 4 5 5 5 4 3 3 3 3 3 3 3
2 2 3 4 4 4 4 4 4 3 3 3 4 3 3 3 3 3 4 3 3 3 3 3 3 4 4 4 4 4 4 3 4 4 3 3 2 2 3 3 2 2 2
2 2 2 4 4 4 4 4 3 3 3 3 3 3 2 2 3 3 3 3 2 2 3 2 2 3 3 3 3 3 3 3 3 3 2 2 2 2 2 2 2 2 3
3 3 3 3 3 4 4 4 3 3 2 2 3 3 2 1 2 2 2 2 2 2 2 2 2 2 2 2 3 3 3 2 3 2 2 2 2 2 3 3 2 2 3
4 4 3 4 4 4 3 3 4 4 3 3 3 3 2 1 1 2 2 1 1 1 1 2 2 1 2 2 2 2 2 3 2 1 2 3 3 4 4 3 4 3 3
3 3 3 3 3 3 3 3 3 3 4 3 3 3 3 1 1 1 1 1 1 1 1 2 2 1 1 1 2 1 2 2 2 1 2 4 5 5 5 5 5 4 4
1 2 2 2 2 2 2 2 2 3 3 3 2 2 2 1 1 1 0 1 1 1 1 2 2 1 1 1 1 1 2 2 1 2 3 5 6 6 6 6 6 6 6
2 1 1 1 1 1 1 2 2 2 3 3 2 2 2 2 1 1 1 0 0 1 0 1 1 1 1 1 1 1 2 2 2 3 4 6 7 7 7 7 7 7 7
2 2 1 1 1 0 1 1 1 1 1 2 2 1 2 1 1 0 0 1 0 0 0 0 1 1 1 2 2 2 2 2 3 3 4 6 7 8 8 8 9 8 8
2 2 2 1 1 1 0 0 1 1 1 1 2 1 1 1 1 1 1 0 1 0 1 1 1 2 1 2 2 2 2 3 4 4 5 6 7 9 9 9 10 10 10
2 2 2 1 1 1 1 1 1 1 1 1 1 2 1 1 1 1 1 1 1 1 2 2 2 2 2 2 3 3 3 4 4 5 5 6 7 9 11 11 10 10 10
2 2 2 2 1 1 1 1 1 1 1 1 2 2 2 2 2 1 2 2 2 2 2 1 1 1 2 2 3 3 3 3 4 5 5 5 6 7 10 11 11 11 11
1 1 2 2 1 1 2 1 1 1 1 2 2 3 3 2 2 1 2 2 2 2 1 1 1 1 2 2 3 3 3 3 4 5 5 5 5 6 8 11 12 12 12
1 1 2 2 2 2 2 1 1 2 2 2 2 3 3 2 2 2 2 2 2 1 2 2 1 1 2 2 3 3 4 4 4 5 5 5 6 6 7 9 11 11 12
1 1 2 2 3 2 1 1 1 1 2 2 2 3 3 3 2 2 2 2 2 2 2 2 2 1 2 2 3 4 4 5 4 5 5 5 5 6 7 7 7 9 11
2 2 2 3 3 2 1 1 1 2 2 2 3 4 4 3 3 3 3 2 2 2 3 3 2 2 1 0 2 3 4 4 5 4 4 4 5 5 6 6 6 7 7
2 3 2 2 3 2 2 2 2 2 2 2 3 4 4 3 4 4 3 3 3 2 3 3 2 2 1 1 1 1 3 4 2 3 3 4 5 4 5 6 6 7 7
3 3 3 3 3 3 2 1 2 1 1 1 2 2 3 4 4 4 4 4 3 4 4 4 3 3 3 2 2 2 2 3 3 3 4 4 4 4 4 5 6 7 8
3 3 3 4 3 3 2 1 2 2 3 3 3 3 3 4 4 4 4 4 4 4 4 4 4 3 4 3 2 2 3 3 2 3 3 3 4 4 4 4 5 7 7
4 4 3 3 4 3 2 2 2 3 3 3 3 3 3 3 3 3 3 3 3 4 4 4 4 4 4 4 3 2 3 3 4 4 5 5 4 4 4 5 5 5 6
4 4 3 3 4 4 3 3 3 4 4 4 4 3 3 2 2 3 3 3 3 3 4 4 4 4 4 4 4 4 4 3 3 4 5 6 6 5 5 5 5 5 5
Wind_Direction
283 300 175 116 109 100 94 88 82 80 81 80 79 86 87 86 88 93 92 92 100 109 113 112 112 112 114 113 109 104 101 101 101 101 101 99 100 100 98 95 92 92 94
221 240 131 121 115 106 100 93 85 81 81 80 80 85 88 89 89 93 96 93 97 103 112 116 115 117 117 116 112 106 105 103 99 98 98 96 97 100 101 97 96 102 101
86 96 124 113 116 107 102 96 89 84 80 82 84 85 90 92 91 89 93 98 98 98 105 112 118 118 119 121 119 115 111 109 107 95 90 87 95 102 103 104 100 101 104
85 80 91 90 100 103 97 96 93 87 83 86 92 91 90 93 94 91 91 94 98 100 101 102 112 116 114 121 123 120 116 112 106 98 87 80 93 108 106 109 109 106 104
72 76 88 91 90 91 95 94 93 89 85 84 95 102 96 91 93 95 92 89 91 100 105 104 111 111 112 111 116 120 120 113 106 98 89 81 85 113 116 111 114 120 116
60 64 97 98 90 85 81 86 95 92 85 81 81 104 105 98 91 94 97 93 91 97 107 111 114 115 118 123 121 123 123 115 104 98 92 90 91 118 128 125 123 127 136
69 54 96 101 93 84 79 72 74 90 87 81 76 82 102 105 99 92 95 98 98 102 108 115 121 123 124 139 138 133 121 116 112 104 100 101 115 137 139 139 141 147 155
101 64 81 105 93 82 74 72 65 74 76 71 72 73 88 110 117 111 104 104 108 111 116 121 133 132 135 136 150 141 124 109 116 118 122 135 152 171 172 170 179 181 187
61 56 44 67 78 75 69 64 53 43 57 59 59 58 66 106 127 129 124 122 128 139 143 149 140 146 150 156 147 155 138 118 103 129 168 180 196 205 206 200 212 217 211
42 37 40 46 55 59 59 62 44 28 25 45 52 44 36 69 132 133 135 131 149 162 176 173 171 182 174 176 169 147 146 135 126 166 200 208 217 226 225 217 228 235 241
28 18 29 36 41 45 49 46 38 37 31 36 49 41 35 46 103 108 145 153 165 191 204 210 207 196 173 176 190 167 137 144 170 199 218 226 228 234 235 235 240 243 242
329 348 12 12 26 33 29 33 36 35 29 24 36 42 36 37 90 91 181 193 193 199 214 230 227 206 186 171 185 177 151 171 181 232 239 240 237 241 241 243 244 243 245
236 300 334 336 10 50 29 22 25 24 24 16 25 26 23 30 61 67 35 67 155 147 127 269 283 228 203 195 198 211 210 199 209 242 252 254 249 245 244 247 250 249 249
230 262 283 313 328 16 57 27 26 21 16 7 350 10 30 14 17 34 355 349 54 137 115 201 253 247 235 224 215 215 222 227 235 243 247 256 257 253 251 251 254 252 253
237 255 272 291 299 261 164 275 11 318 326 340 347 348 7 333 257 232 252 293 309 229 214 228 228 234 252 258 243 229 234 244 245 246 253 256 262 257 254 253 254 254 254
248 259 264 269 264 261 232 228 243 254 305 329 331 296 266 270 256 229 230 247 264 255 235 231 232 227 241 253 252 242 244 251 253 251 250 254 258 260 256 255 255 257 256
261 273 271 269 273 273 251 231 268 275 308 310 303 287 268 261 251 233 218 227 255 261 255 247 244 227 252 264 261 255 247 249 253 258 258 253 252 260 259 256 257 258 258
273 289 290 300 297 276 273 264 282 287 289 292 298 296 277 266 250 236 222 231 258 246 229 221 228 246 268 272 272 268 259 251 256 256 258 254 249 254 261 260 258 258 257
286 284 298 303 293 277 283 277 275 270 267 286 301 302 291 279 262 244 236 241 242 230 214 226 226 215 252 276 280 277 265 250 249 253 252 251 249 249 254 261 256 257 257
330 329 326 311 303 300 303 301 284 265 269 280 281 281 280 282 281 256 245 237 223 214 225 219 230 238 231 256 293 293 282 266 250 243 244 248 247 245 248 256 256 254 255
3 353 336 326 314 311 304 284 265 265 266 269 278 273 267 272 274 245 241 222 217 219 227 217 222 227 243 257 320 312 300 269 252 247 238 240 247 248 248 252 255 252 254
341 329 324 315 314 301 280 272 250 249 253 250 280 285 275 275 268 250 226 226 221 225 231 218 210 215 247 191 226 299 306 305 273 253 244 243 249 250 255 255 252 250 248
332 320 316 309 312 311 303 306 306 300 302 285 286 270 282 285 274 250 236 226 223 213 220 224 215 214 225 245 216 210 239 261 304 276 248 249 253 259 257 259 253 254 252
315 317 320 320 316 315 321 299 271 264 267 273 274 261 275 291 283 260 246 236 226 223 220 226 227 226 208 227 240 242 244 243 255 295 289 265 262 260 262 270 266 255 253
320 320 321 320 326 322 310 294 277 272 267 282 286 275 276 286 286 278 254 244 237 236 230 230 232 231 227 224 230 246 256 264 244 248 278 290 285 267 263 264 263 264 260
336 332 329 328 323 322 309 293 284 275 275 285 280 272 275 277 272 279 276 255 243 242 237 234 229 228 240 237 236 237 236 234 232 239 258 277 284 285 275 268 265 265 267
Height
1505 1506 1507 1508 1509 1510 1510 1511 1512 1513 1513 1514 1514 1515 1516 1516 1517 1517 1518 1519 1519 1520 1520 1521 1521 1522 1522 1522 1523 1523 1524 1524 1525 1525 1526 1526 1527 1527 1528 1528 1528 1529 1529
1504 1505 1506 1507 1508 1509 1510 1511 1512 1512 1513 1513 1514 1515 1515 1516 1517 1517 1518 1518 1519 1519 1520 1520 1521 1521 1522 1522 1523 1523 1524 1524 1525 1525 1526 1526 1527 1527 1528 1528 1528 1529 1529
1503 1505 1506 1507 1508 1509 1510 1510 1511 1512 1512 1513 1513 1514 1515 1515 1516 1517 1517 1517 1518 1519 1519 1520 1520 1521 1521 1522 1522 1523 1523 1524 1524 1525 1525 1526 1527 1527 1528 1528 1528 1529 1529
1503 1504 1505 1506 1507 1508 1509 1510 1510 1511 1511 1512 1513 1513 1514 1515 1515 1516 1516 1517 1517 1518 1518 1519 1520 1520 1521 1521 1522 1522 1523 1523 1524 1524 1525 1526 1526 1527 1527 1528 1528 1528 1528
1503 1504 1505 1506 1506 1507 1508 1509 1509 1510 1511 1511 1512 1512 1513 1514 1515 1515 1515 1516 1516 1517 1518 1518 1519 1519 1520 1520 1521 1521 1522 1523 1523 1524 1524 1525 1526 1527 1527 1527 1527 1527 1528
1502 1503 1504 1505 1506 1506 1507 1508 1508 1509 1509 1510 1511 1511 1512 1513 1513 1514 1514 1515 1516 1516 1517 1517 1518 1518 1519 1519 1520 1520 1521 1522 1522 1523 1523 1524 1525 1525 1526 1526 1526 1527 1527
1502 1503 1504 1505 1505 1506 1506 1506 1507 1507 1508 1509 1509 1510 1510 1511 1512 1512 1513 1514 1514 1515 1516 1516 1517 1517 1518 1518 1519 1519 1520 1520 1521 1521 1522 1523 1523 1524 1525 1525 1525 1525 1526
1501 1502 1503 1504 1504 1505 1505 1505 1505 1506 1506 1507 1507 1508 1509 1509 1510 1511 1512 1512 1513 1514 1514 1515 1515 1516 1516 1517 1517 1518 1518 1519 1520 1520 1521 1521 1522 1523 1523 1523 1524 1524 1524
1500 1501 1502 1503 1503 1504 1504 1504 1504 1504 1504 1505 1505 1506 1507 1507 1508 1509 1510 1510 1511 1512 1513 1513 1514 1514 1515 1515 1515 1516 1516 1517 1518 1518 1519 1520 1520 1521 1521 1522 1522 1522 1523
1499 1500 1501 1501 1502 1502 1502 1503 1503 1503 1503 1503 1503 1504 1504 1505 1506 1507 1507 1508 1509 1510 1511 1511 1512 1512 1513 1513 1513 1514 1514 1515 1516 1516 1517 1517 1518 1519 1519 1520 1520 1520 1521
1497 1498 1499 1499 1500 1500 1500 1501 1501 1501 1501 1501 1501 1501 1502 1503 1503 1504 1505 1506 1507 1508 1508 1509 1510 1510 1510 1511 1511 1512 1512 1512 1513 1514 1514 1515 1516 1516 1517 1517 1518 1518 1518
1495 1496 1496 1497 1498 1498 1498 1498 1499 1499 1499 1499 1499 1499 1500 1500 1501 1501 1502 1503 1504 1505 1506 1506 1507 1507 1508 1508 1509 1509 1509 1510 1510 1511 1511 1512 1513 1514 1514 1515 1515 1516 1516
1494 1494 1494 1495 1495 1496 1496 1496 1496 1496 1496 1497 1497 1497 1497 1498 1498 1499 1499 1500 1501 1502 1503 1503 1504 1505 1505 1505 1506 1506 1506 1507 1507 1508 1509 1509 1510 1511 1511 1512 1512 1513 1513
1492 1492 1492 1493 1493 1493 1493 1493 1494 1494 1494 1494 1494 1494 1495 1495 1495 1495 1496 1497 1498 1499 1499 1500 1501 1502 1502 1503 1503 1503 1503 1504 1504 1504 1505 1506 1506 1507 1508 1508 1509 1509 1510
1489 1490 1490 1490 1490 1491 1491 1491 1491 1491 1491 1492 1492 1492 1492 1492 1492 1492 1493 1494 1494 1495 1496 1497 1497 1498 1499 1499 1499 1500 1500 1500 1501 1501 1501 1502 1503 1503 1504 1505 1505 1506 1506
1486 1487 1487 1487 1488 1488 1488 1488 1488 1488 1488 1489 1488 1489 1489 1489 1489 1489 1490 1490 1491 1492 1493 1493 1494 1494 1495 1495 1496 1496 1496 1496 1497 1497 1497 1498 1498 1499 1500 1500 1501 1502 1502
1483 1484 1484 1484 1485 1485 1485 1485 1485 1485 1485 1485 1485 1485 1486 1486 1486 1486 1486 1487 1488 1488 1489 1489 1490 1491 1491 1491 1492 1492 1492 1492 1492 1493 1493 1494 1494 1495 1495 1496 1496 1497 1497
1481 1481 1481 1481 1481 1481 1481 1482 1482 1482 1482 1482 1482 1482 1482 1482 1483 1483 1483 1483 1484 1484 1485 1485 1486 1486 1486 1487 1487 1487 1487 1488 1488 1488 1489 1489 1490 1490 1490 1491 1491 1492 1492
1478 1478 1478 1478 1478 1478 1478 1478 1478 1478 1478 1478 1478 1478 1478 1478 1479 1479 1479 1480 1480 1480 1481 1481 1481 1482 1482 1483 1483 1483 1483 1483 1483 1484 1484 1484 1485 1485 1486 1486 1486 1487 1487
1475 1475 1475 1475 1475 1475 1475 1474 1474 1474 1475 1474 1474 1474 1475 1475 1475 1475 1475 1476 1476 1476 1476 1477 1477 1478 1478 1479 1478 1478 1478 1478 1478 1478 1479 1479 1480 1480 1481 1481 1481 1481 1482
1472 1472 1472 1472 1472 1472 1471 1470 1470 1470 1470 1470 1470 1470 1470 1471 1471 1471 1471 1471 1471 1471 1472 1472 1473 1473 1474 1474 1474 1473 1473 1474 1473 1473 1474 1474 1475 1475 1475 1476 1476 1476 1476
1469 1469 1469 1469 1469 1469 1468 1467 1467 1466 1466 1466 1466 1466 1466 1466 1466 1467 1466 1467 1467 1467 1468 1468 1469 1469 1470 1471 1471 1470 1469 1469 1467 1468 1468 1469 1469 1470 1470 1470 1470 1470 1470
1466 1466 1466 1466 1466 1465 1465 1464 1463 1463 1462 1462 1462 1462 1462 1462 1462 1462 1462 1462 1463 1463 1463 1463 1464 1464 1465 1466 1468 1468 1467 1464 1463 1462 1462 1463 1464 1464 1465 1465 1465 1465 1465
1463 1463 1463 1463 1462 1462 1461 1461 1459 1458 1458 1458 1458 1458 1458 1458 1458 1458 1458 1458 1458 1458 1458 1459 1460 1460 1461 1461 1462 1463 1464 1462 1462 1457 1456 1457 1458 1459 1459 1459 1459 1459 1459
1460 1460 1460 1460 1459 1459 1458 1457 1456 1455 1455 1455 1454 1454 1453 1453 1453 1454 1454 1454 1454 1454 1454 1455 1455 1455 1456 1456 1457 1457 1458 1458 1457 1456 1453 1451 1452 1453 1454 1454 1454 1454 1454
1458 1458 1457 1457 1456 1455 1455 1453 1452 1451 1451 1451 1450 1449 1449 1449 1449 1449 1449 1449 1449 1449 1449 1449 1450 1450 1451 1452 1452 1452 1453 1453 1452 1452 1450 1448 1446 1447 1448 1448 1448 1448 1448